Flag for Malaysia Weather past 2 weeks in Kuching, Malaysia

Now
79 °F

Partly cloudy.


Feels Like: 82 °F
Forecast: 76 / 90 °F
Wind: 3 mph from Southwest

Location: Kuching Airport

Current Time: Apr 29, 2015 at 4:10:14 AM

Latest Report: Apr 29, 2015 at 3:30 AM


Visibility: N/A

Pressure: 29.80 "Hg

Humidity: 89%

Dew point: 75 °F

Location of KuchingLocation

Historic Weather in Kuching — Graph

°F

Kuching temperature yesterday

Maximum temperature yesterday: 91 °F (at 1:00 PM)
Minimum temperature yesterday: 73 °F (at 6:30 AM)
Average temperature yesterday: 81 °F

Past Weeks' High & Low Weather Summary

 TemperatureHumidityPressure
High93 °F (Apr 18, 2:30 PM)100% (Apr 14, 7:00 AM)29.95 "Hg (Apr 14, 7:00 AM)
Low73 °F (Apr 17, 4:00 AM)52% (Apr 26, 3:00 PM)29.71 "Hg (Apr 14, 4:00 PM)
Average81 °F84%29.83 "Hg
* Reported Apr 14 3:00 AM — Apr 29 3:00 AM, Kuching, Weather by CustomWeather, © 2015

Note: Actual official high and low records may vary slightly from our data, if they occured in-between our weather recording intervals... More about our weather records

Advertising

Kuching weather history for previous 24 hours

 ConditionsComfort  
Time TempWeatherWind HumidityBarometerVisibility
3:00 AM
Wed, Apr 29
77 °FPartly cloudy.No wind94%29.80 "HgN/A
2:30 AM77 °FLight rain. Partly cloudy.No wind94%29.80 "HgN/A
2:00 AM79 °FLight rain. Partly cloudy.2 mph89%29.80 "HgN/A
1:30 AM77 °FLight rain. Partly cloudy.2 mph94%29.83 "HgN/A
1:00 AM77 °FLight rain. Partly cloudy.3 mph94%29.83 "HgN/A
12:30 AM79 °FPartly cloudy.3 mph89%29.83 "HgN/A
12:00 AM79 °FPartly cloudy.5 mph89%29.83 "HgN/A
11:30 PM
Tue, Apr 28
79 °FPartly cloudy.3 mph94%29.86 "HgN/A
11:00 PM79 °FPartly cloudy.1 mph94%29.86 "HgN/A
10:30 PM79 °FPartly cloudy.5 mph94%29.86 "HgN/A
10:00 PM81 °FPartly cloudy.2 mph89%29.83 "HgN/A
9:30 PM81 °FPartly cloudy.2 mph89%29.83 "HgN/A
9:00 PM81 °FPartly cloudy.5 mph89%29.83 "HgN/A
8:30 PM82 °FThunderstorms. Partly cloudy.3 mph79%29.83 "HgN/A
8:00 PM84 °FPartly cloudy.6 mph74%29.80 "HgN/A
7:30 PM84 °FPartly cloudy.5 mph74%29.80 "HgN/A
7:00 PM84 °FPartly cloudy.5 mph74%29.77 "HgN/A
6:30 PM86 °FBroken clouds.5 mph75%29.77 "HgN/A
6:00 PM86 °FBroken clouds.6 mph75%29.77 "HgN/A
5:30 PM88 °FBroken clouds.6 mph70%29.74 "HgN/A
5:00 PM88 °FBroken clouds.7 mph70%29.74 "HgN/A
4:30 PM88 °FBroken clouds.7 mph75%29.74 "HgN/A
4:00 PM90 °FBroken clouds.7 mph67%29.74 "HgN/A
3:30 PM88 °FBroken clouds.6 mph75%29.74 "HgN/A
3:00 PM88 °FBroken clouds.7 mph70%29.77 "HgN/A
2:30 PM88 °FBroken clouds.6 mph70%29.77 "HgN/A
2:00 PM90 °FBroken clouds.7 mph67%29.80 "HgN/A
1:30 PM90 °FBroken clouds.3 mph67%29.83 "HgN/A
1:00 PM91 °FBroken clouds.3 mph63%29.83 "HgN/A
12:30 PM88 °FBroken clouds.3 mph70%29.86 "HgN/A
12:00 PM86 °FBroken clouds.3 mph75%29.86 "HgN/A
11:30 AM86 °FBroken clouds.5 mph75%29.86 "HgN/A
11:00 AM84 °FBroken clouds.6 mph79%29.89 "HgN/A
10:30 AM84 °FPartly sunny.7 mph74%29.89 "HgN/A
10:00 AM82 °FPartly sunny.5 mph79%29.89 "HgN/A
9:30 AM81 °FPartly sunny.3 mph84%29.89 "HgN/A
9:00 AM79 °FPartly sunny.2 mph89%29.89 "HgN/A
8:30 AM77 °FBroken clouds.2 mph89%29.89 "Hg6 mi
8:00 AM75 °FBroken clouds.3 mph94%29.86 "Hg3 mi
7:30 AM75 °FBroken clouds.3 mph94%29.86 "Hg1 mi
7:00 AM75 °FFog.2 mph94%29.86 "Hg1 mi
6:30 AM73 °FFog.2 mph100%29.86 "Hg1 mi
6:00 AM75 °FFog.3 mph94%29.83 "Hg3 mi
5:30 AM75 °FPartly cloudy.3 mph100%29.83 "Hg4 mi
5:00 AM75 °FPartly cloudy.1 mph94%29.80 "HgN/A
4:30 AM75 °FPartly cloudy.No wind94%29.80 "Hg5 mi
4:00 AM75 °FFog.2 mph100%29.80 "Hg3 mi
Weather by CustomWeather, © 2015

See weather overviewHow to use our weather pages